TimeCST,TemperatureF,Dew PointF,Humidity,Sea Level PressureIn,VisibilityMPH,Wind Direction,Wind SpeedMPH,Gust SpeedMPH,PrecipitationIn,Events,Conditions,WindDirDegrees,DateUTC
12:02 AM,51.8,28.4,41,29.98,10.0,South,13.8,19.6,N/A,,Scattered Clouds,180,2012-12-06 06:02:00
12:23 AM,51.8,28.4,41,29.98,10.0,South,11.5,-,N/A,,Clear,190,2012-12-06 06:23:00
12:42 AM,51.8,28.4,41,29.96,10.0,South,13.8,-,N/A,,Clear,190,2012-12-06 06:42:00
1:02 AM,51.8,28.4,41,29.96,10.0,South,11.5,-,N/A,,Scattered Clouds,190,2012-12-06 07:02:00
1:22 AM,50.0,28.4,43,29.95,10.0,South,10.4,-,N/A,,Scattered Clouds,190,2012-12-06 07:22:00
1:43 AM,48.2,28.4,46,29.95,10.0,South,11.5,-,N/A,,Scattered Clouds,180,2012-12-06 07:43:00
2:03 AM,48.2,28.4,46,29.94,10.0,South,11.5,-,N/A,,Scattered Clouds,190,2012-12-06 08:03:00
2:23 AM,48.2,28.4,46,29.94,10.0,South,10.4,-,N/A,,Scattered Clouds,180,2012-12-06 08:23:00
3:06 AM,48.2,28.4,46,29.92,10.0,South,13.8,-,N/A,,Scattered Clouds,180,2012-12-06 09:06:00
3:23 AM,48.2,28.4,46,29.92,10.0,South,11.5,-,N/A,,Scattered Clouds,180,2012-12-06 09:23:00
3:43 AM,48.2,28.4,46,29.91,10.0,South,13.8,18.4,N/A,,Clear,190,2012-12-06 09:43:00
4:04 AM,48.2,28.4,46,29.91,10.0,South,13.8,-,N/A,,Scattered Clouds,190,2012-12-06 10:04:00
4:24 AM,48.2,28.4,46,29.90,10.0,South,11.5,-,N/A,,Scattered Clouds,190,2012-12-06 10:24:00
4:44 AM,48.2,30.2,50,29.90,10.0,South,6.9,-,N/A,,Scattered Clouds,180,2012-12-06 10:44:00
5:05 AM,48.2,30.2,50,29.90,10.0,South,5.8,-,N/A,,Scattered Clouds,180,2012-12-06 11:05:00
5:24 AM,48.2,30.2,50,29.90,10.0,SSW,6.9,-,N/A,,Scattered Clouds,200,2012-12-06 11:24:00
5:45 AM,48.2,30.2,50,29.91,10.0,South,8.1,-,N/A,,Scattered Clouds,190,2012-12-06 11:45:00
6:10 AM,46.4,30.2,53,29.92,10.0,SSW,3.5,-,N/A,,Scattered Clouds,210,2012-12-06 12:10:00
6:25 AM,46.4,30.2,53,29.92,10.0,South,4.6,-,N/A,,Scattered Clouds,180,2012-12-06 12:25:00
6:45 AM,46.4,32.0,57,29.92,10.0,South,4.6,-,N/A,,Scattered Clouds,170,2012-12-06 12:45:00
7:05 AM,46.4,32.0,57,29.92,10.0,South,4.6,-,N/A,,Scattered Clouds,180,2012-12-06 13:05:00
7:30 AM,46.4,32.0,57,29.93,10.0,SSW,5.8,-,N/A,,Clear,200,2012-12-06 13:30:00
7:35 AM,46.4,32.0,57,29.93,10.0,SSW,5.8,-,N/A,,Scattered Clouds,200,2012-12-06 13:35:00
7:41 AM,46.4,32.0,57,29.93,10.0,SSW,4.6,-,N/A,,Scattered Clouds,200,2012-12-06 13:41:00
7:55 AM,46.4,32.0,57,29.93,10.0,SSW,3.5,-,N/A,,Clear,210,2012-12-06 13:55:00
8:15 AM,46.4,33.8,62,29.92,10.0,SSW,5.8,-,N/A,,Clear,200,2012-12-06 14:15:00
8:35 AM,46.4,33.8,62,29.92,10.0,Calm,Calm,-,N/A,,Clear,0,2012-12-06 14:35:00
8:55 AM,48.2,33.8,58,29.93,10.0,South,3.5,-,N/A,,Clear,190,2012-12-06 14:55:00
9:15 AM,48.2,33.8,58,29.92,10.0,Calm,Calm,-,N/A,,Clear,0,2012-12-06 15:15:00
9:35 AM,50.0,35.6,58,29.93,10.0,South,5.8,-,N/A,,Clear,190,2012-12-06 15:35:00
9:55 AM,50.0,35.6,58,29.94,10.0,SSW,5.8,-,N/A,,Clear,210,2012-12-06 15:55:00
10:15 AM,51.8,35.6,54,29.94,10.0,SSW,6.9,-,N/A,,Clear,210,2012-12-06 16:15:00
10:35 AM,51.8,35.6,54,29.94,10.0,SSW,6.9,-,N/A,,Clear,210,2012-12-06 16:35:00
10:55 AM,51.8,35.6,54,29.94,10.0,SW,6.9,-,N/A,,Clear,220,2012-12-06 16:55:00
11:15 AM,51.8,35.6,54,29.93,10.0,SW,5.8,-,N/A,,Clear,220,2012-12-06 17:15:00
11:35 AM,53.6,35.6,51,29.93,10.0,WSW,8.1,-,N/A,,Clear,240,2012-12-06 17:35:00
11:55 AM,53.6,35.6,51,29.92,10.0,WSW,5.8,-,N/A,,Clear,240,2012-12-06 17:55:00
12:15 PM,53.6,35.6,51,29.91,10.0,West,3.5,-,N/A,,Clear,280,2012-12-06 18:15:00
12:35 PM,53.6,33.8,47,29.91,10.0,NNW,4.6,-,N/A,,Clear,330,2012-12-06 18:35:00
12:55 PM,53.6,33.8,47,29.91,10.0,Calm,Calm,-,N/A,,Clear,0,2012-12-06 18:55:00
1:15 PM,53.6,30.2,41,29.91,10.0,NW,5.8,-,N/A,,Clear,320,2012-12-06 19:15:00
1:35 PM,53.6,28.4,38,29.92,10.0,NW,6.9,-,N/A,,Clear,310,2012-12-06 19:35:00
1:55 PM,55.4,28.4,36,29.91,10.0,North,9.2,-,N/A,,Clear,350,2012-12-06 19:55:00
2:15 PM,53.6,30.2,41,29.91,10.0,North,9.2,-,N/A,,Scattered Clouds,360,2012-12-06 20:15:00
2:35 PM,53.6,30.2,41,29.89,10.0,North,13.8,-,N/A,,Scattered Clouds,10,2012-12-06 20:35:00
2:55 PM,51.8,32.0,47,29.88,10.0,North,18.4,26.5,N/A,,Scattered Clouds,10,2012-12-06 20:55:00
3:15 PM,51.8,33.8,50,29.89,10.0,NNE,16.1,25.3,N/A,,Clear,20,2012-12-06 21:15:00
3:35 PM,51.8,35.6,54,29.91,10.0,NNE,13.8,19.6,N/A,Rain,Light Rain,20,2012-12-06 21:35:00
3:55 PM,50.0,37.4,62,29.94,10.0,NNE,9.2,-,N/A,Rain,Rain,20,2012-12-06 21:55:00
4:15 PM,48.2,37.4,66,29.93,10.0,NNE,11.5,-,N/A,,Light Drizzle,30,2012-12-06 22:15:00
4:35 PM,48.2,37.4,66,29.95,10.0,NNE,10.4,-,N/A,,Mostly Cloudy,30,2012-12-06 22:35:00
4:55 PM,48.2,37.4,66,29.96,10.0,NNE,6.9,-,N/A,,Overcast,20,2012-12-06 22:55:00
5:15 PM,48.2,37.4,66,29.96,10.0,North,3.5,-,N/A,,Overcast,360,2012-12-06 23:15:00
5:35 PM,48.2,37.4,66,29.96,10.0,NNE,5.8,-,N/A,,Overcast,20,2012-12-06 23:35:00
5:55 PM,48.2,37.4,66,29.95,10.0,NE,4.6,-,N/A,,Overcast,50,2012-12-06 23:55:00
6:15 PM,48.2,37.4,66,29.95,10.0,Calm,Calm,-,N/A,,Overcast,0,2012-12-07 00:15:00
6:35 PM,46.4,39.2,76,29.96,10.0,Calm,Calm,-,N/A,,Overcast,0,2012-12-07 00:35:00
6:55 PM,46.4,39.2,76,29.97,10.0,North,3.5,-,N/A,,Overcast,360,2012-12-07 00:55:00
7:15 PM,48.2,37.4,66,29.97,10.0,Calm,Calm,-,N/A,,Overcast,0,2012-12-07 01:15:00
7:35 PM,46.4,37.4,71,29.98,10.0,Calm,Calm,-,N/A,,Overcast,0,2012-12-07 01:35:00
7:55 PM,46.4,37.4,71,29.98,10.0,North,4.6,-,N/A,,Overcast,10,2012-12-07 01:55:00
8:35 PM,46.4,35.6,66,29.98,10.0,NNE,10.4,-,N/A,,Overcast,20,2012-12-07 02:35:00
8:55 PM,46.4,35.6,66,29.98,10.0,NNE,9.2,-,N/A,,Overcast,20,2012-12-07 02:55:00
9:15 PM,46.4,35.6,66,29.99,10.0,NNE,10.4,-,N/A,,Overcast,30,2012-12-07 03:15:00
9:35 PM,46.4,35.6,66,29.99,10.0,NNE,9.2,-,N/A,,Overcast,20,2012-12-07 03:35:00
9:55 PM,46.4,35.6,66,29.99,10.0,NNE,8.1,-,N/A,,Overcast,30,2012-12-07 03:55:00
10:15 PM,46.4,35.6,66,29.99,10.0,NNE,6.9,-,N/A,,Overcast,30,2012-12-07 04:15:00
10:35 PM,46.4,35.6,66,30.00,10.0,NNE,6.9,-,N/A,,Overcast,20,2012-12-07 04:35:00
10:55 PM,46.4,35.6,66,30.00,10.0,NNE,6.9,-,N/A,,Overcast,20,2012-12-07 04:55:00
11:15 PM,46.4,35.6,66,29.99,10.0,NNE,6.9,-,N/A,,Overcast,20,2012-12-07 05:15:00
11:35 PM,44.6,35.6,71,29.99,10.0,NNE,5.8,-,N/A,,Overcast,30,2012-12-07 05:35:00
11:55 PM,44.6,35.6,71,29.99,10.0,NNE,4.6,-,N/A,,Overcast,30,2012-12-07 05:55:00